DW1814 Weather Reports


Display with metric or nautical units.
time (UTC)temp
F
wind
direction
speed
MPH
gust
MPH
rain 1hr
in
rain 24hr
in
rain mn
in
humidity
%
barometer
mb
20260510120231 47 75 1.0 2.0 0.00 0.00 0.00 73 1016.4
20260510115727 45 72 2.0 2.0 0.00 0.00 0.00 83 1016.4
20260510115226 42 81 2.0 2.0 0.00 0.00 0.00 91 1016.2
20260510114720 38 72 2.0 2.0 0.00 0.00 0.00 94 1016.2
20260510114218 36 71 2.0 3.0 0.00 0.00 0.00 94 1016.4
20260510113713 36 50 2.0 2.0 0.00 0.00 0.00 94 1016.0
20260510113210 35 64 2.0 2.0 0.00 0.00 0.00 94 1016.2
20260510112706 35 84 1.0 1.0 0.00 0.00 0.00 94 1016.0
20260510112204 35 86 1.0 2.0 0.00 0.00 0.00 93 1016.1
20260510111700 35 78 2.0 2.0 0.00 0.00 0.00 93 1016.0
20260510111157 35 71 1.0 2.0 0.00 0.00 0.00 93 1015.7
20260510110656 35 49 2.0 2.0 0.00 0.00 0.00 93 1015.9
20260510110154 35 72 2.0 2.0 0.00 0.00 0.00 92 1015.8
20260510105649 35 89 1.0 2.0 0.00 0.00 0.00 92 1015.6
20260510105149 35 72 2.0 2.0 0.00 0.00 0.00 92 1015.5
20260510104646 35 66 2.0 2.0 0.00 0.00 0.00 92 1015.5
20260510104143 35 69 2.0 2.0 0.00 0.00 0.00 91 1015.4
20260510103640 35 68 2.0 2.0 0.00 0.00 0.00 91 1015.4
20260510103137 35 47 2.0 2.0 0.00 0.00 0.00 91 1015.5
20260510102632 35 42 2.0 2.0 0.00 0.00 0.00 91 1015.2
20260510102128 35 91 2.0 2.0 0.00 0.00 0.00 90 1015.2
20260510101626 35 52 2.0 2.0 0.00 0.00 0.00 90 1015.0
20260510101124 36 70 2.0 2.0 0.00 0.00 0.00 90 1015.2
20260510100619 36 45 2.0 2.0 0.00 0.00 0.00 89 1014.9
20260510100117 36 57 2.0 2.0 0.00 0.00 0.00 89 1015.0
20260510095613 36 50 2.0 2.0 0.00 0.00 0.00 89 1015.0
20260510095113 36 63 2.0 2.0 0.00 0.00 0.00 88 1014.8
20260510094612 36 40 2.0 2.0 0.00 0.00 0.00 88 1014.7
20260510094107 36 55 2.0 2.0 0.00 0.00 0.00 88 1014.8
20260510093604 37 41 2.0 2.0 0.00 0.00 0.00 88 1014.9
20260510093101 37 49 2.0 2.0 0.00 0.00 0.00 87 1015.0
20260510092558 37 42 2.0 3.0 0.00 0.00 0.00 87 1014.9
20260510092057 37 62 2.0 2.0 0.00 0.00 0.00 86 1014.8
20260510091554 37 56 2.0 2.0 0.00 0.00 0.00 85 1014.8
20260510091050 37 66 2.0 2.0 0.00 0.00 0.00 85 1014.9
20260510090547 37 23 0.0 2.0 0.00 0.00 0.00 85 1014.8
20260510090043 38 93 2.0 2.0 0.00 0.00 0.00 84 1014.6
20260510085538 38 46 2.0 2.0 0.00 0.00 0.00 84 1014.5
20260510085034 37 75 2.0 2.0 0.00 0.00 0.00 84 1014.6
20260510084531 37 67 2.0 2.0 0.00 0.00 0.00 82 1014.5
20260510084028 38 84 1.0 2.0 0.00 0.00 0.00 82 1014.3
20260510083525 38 67 2.0 2.0 0.00 0.00 0.00 80 1014.4
20260510083021 38 75 1.0 2.0 0.00 0.00 0.00 78 1014.3
20260510082518 39 75 1.0 2.0 0.00 0.00 0.00 78 1014.2
20260510082018 39 62 2.0 2.0 0.00 0.00 0.00 77 1014.3
20260510081514 39 70 1.0 2.0 0.00 0.00 0.00 76 1014.1
20260510081009 40 73 2.0 2.0 0.00 0.00 0.00 76 1014.1
20260510080508 40 77 1.0 2.0 0.00 0.00 0.00 73 1013.9
20260510080006 41 82 1.0 2.0 0.00 0.00 0.00 73 1013.9
20260510075503 41 75 1.0 2.0 0.00 0.00 0.00 72 1013.7
20260510075000 42 79 2.0 2.0 0.00 0.00 0.00 69 1013.7
20260510074458 43 62 1.0 2.0 0.00 0.00 0.00 69 1013.7
20260510073953 43 93 0.0 2.0 0.00 0.00 0.00 68 1013.7
20260510073449 44 66 1.0 2.0 0.00 0.00 0.00 67 1013.5
20260510072946 44 89 0.0 1.0 0.00 0.00 0.00 66 1013.4
20260510072442 45 70 0.0 2.0 0.00 0.00 0.00 64 1013.6
20260510071938 45 73 1.0 2.0 0.00 0.00 0.00 63 1013.3
20260510071435 46 55 1.0 3.0 0.00 0.00 0.00 61 1013.2
20260510070933 46 23 2.0 4.0 0.00 0.00 0.00 59 1013.3
20260510070430 46 49 3.0 4.0 0.00 0.00 0.00 59 1013.1
20260510065925 46 358 2.0 7.0 0.00 0.00 0.00 59 1013.1
20260510065422 47 32 1.0 3.0 0.00 0.00 0.00 60 1013.0
20260510064918 47 25 2.0 4.0 0.00 0.00 0.00 59 1013.0
20260510064416 47 45 3.0 3.0 0.00 0.00 0.00 59 1013.0
20260510063913 47 30 2.0 5.0 0.00 0.00 0.00 58 1013.1
20260510063409 47 100 4.0 4.0 0.00 0.00 0.00 59 1012.9
20260510062907 48 45 2.0 2.0 0.00 0.00 0.00 58 1012.8
20260510062401 48 119 2.0 4.0 0.00 0.00 0.00 57 1012.7
20260510061857 48 72 2.0 3.0 0.00 0.00 0.00 57 1013.0
20260510061354 48 48 3.0 4.0 0.00 0.00 0.00 59 1012.6
20260510060850 47 39 2.0 6.0 0.00 0.00 0.00 61 1012.6
20260510060347 45 20 3.0 5.0 0.00 0.00 0.00 69 1012.4
20260510055843 45 75 2.0 2.0 0.00 0.00 0.00 77 1012.6
20260510055343 45 66 2.0 2.0 0.00 0.00 0.00 76 1012.4
20260510054842 44 56 2.0 5.0 0.00 0.00 0.00 79 1011.9
20260510054338 43 39 2.0 4.0 0.00 0.00 0.00 83 1011.9
20260510053833 43 67 1.0 4.0 0.00 0.00 0.00 84 1011.7
20260510053329 43 56 2.0 3.0 0.00 0.00 0.00 84 1011.6
20260510052825 43 68 1.0 2.0 0.00 0.00 0.00 83 1011.4
20260510052321 44 75 1.0 2.0 0.00 0.00 0.00 81 1011.3
20260510051818 44 56 1.0 2.0 0.00 0.00 0.00 81 1011.2
20260510051314 44 63 1.0 2.0 0.00 0.00 0.00 80 1011.5
20260510050811 44 88 2.0 2.0 0.00 0.00 0.00 80 1011.1
20260510050308 44 88 2.0 2.0 0.00 0.00 0.00 80 1011.0
20260510045805 44 80 1.0 2.0 0.00 0.00 0.00 79 1011.0
20260510045305 44 71 1.0 2.0 0.00 0.00 0.00 78 1011.1
20260510044759 45 88 1.0 2.0 0.00 0.00 0.00 77 1011.1
20260510044256 45 60 1.0 2.0 0.00 0.00 0.00 76 1010.9
20260510043752 45 34 3.0 3.0 0.00 0.00 0.00 75 1010.7
20260510043248 46 57 2.0 2.0 0.00 0.00 0.00 73 1010.8
20260510042746 46 87 1.0 2.0 0.00 0.00 0.00 73 1010.7
20260510042241 46 75 1.0 2.0 0.00 0.00 0.00 72 1010.5
20260510041738 46 85 1.0 2.0 0.00 0.00 0.00 72 1010.5
20260510041236 46 79 1.0 2.0 0.00 0.00 0.00 72 1010.6
20260510040733 47 71 1.0 2.0 0.00 0.00 0.00 73 1010.3
20260510040230 47 70 1.0 3.0 0.00 0.00 0.00 73 1010.3
20260510035725 47 55 2.0 3.0 0.00 0.00 0.00 72 1010.3
20260510035221 48 35 2.0 3.0 0.00 0.00 0.00 71 1010.3
20260510034717 48 75 2.0 3.0 0.00 0.00 0.00 70 1010.1
20260510034215 48 60 2.0 2.0 0.00 0.00 0.00 70 1010.0
20260510033711 48 337 2.0 3.0 0.00 0.00 0.00 69 1010.0
20260510033209 48 77 2.0 2.0 0.00 0.00 0.00 69 1009.8
20260510032705 48 88 1.0 3.0 0.00 0.00 0.00 69 1009.7
20260510032201 49 94 2.0 2.0 0.00 0.00 0.00 68 1009.9
20260510031655 49 62 2.0 3.0 0.00 0.00 0.00 67 1009.8
20260510031153 49 77 1.0 2.0 0.00 0.00 0.00 66 1009.6
20260510030652 50 70 1.0 2.0 0.00 0.00 0.00 66 1009.5
20260510030150 50 43 2.0 2.0 0.00 0.00 0.00 64 1009.5
20260510025647 51 76 1.0 2.0 0.00 0.00 0.00 62 1009.4
20260510025144 51 77 1.0 2.0 0.00 0.00 0.00 62 1009.4
20260510024641 52 84 1.0 2.0 0.00 0.00 0.00 61 1009.3
20260510024137 53 86 1.0 2.0 0.00 0.00 0.00 59 1009.2
20260510023633 53 89 1.0 2.0 0.00 0.00 0.00 57 1009.1
20260510023131 54 355 1.0 2.0 0.00 0.00 0.00 56 1009.0
20260510022631 54 80 1.0 3.0 0.00 0.00 0.00 55 1008.8
20260510022126 55 73 2.0 2.0 0.00 0.00 0.00 52 1008.7
20260510021622 56 59 1.0 3.0 0.00 0.00 0.00 50 1008.6
20260510021120 57 103 2.0 3.0 0.00 0.00 0.00 50 1008.6
20260510020619 58 80 2.0 2.0 0.00 0.00 0.00 47 1008.5
20260510020115 59 51 2.0 3.0 0.00 0.00 0.00 44 1008.2
20260510015612 59 53 2.0 2.0 0.00 0.00 0.00 44 1008.2
20260510015108 59 25 2.0 3.0 0.00 0.00 0.00 42 1008.2
20260510014604 60 46 1.0 5.0 0.00 0.00 0.00 43 1007.9
20260510014102 60 16 2.0 6.0 0.00 0.00 0.00 43 1007.9
20260510013555 60 26 3.0 6.0 0.00 0.00 0.00 42 1007.7
20260510013052 60 346 2.0 3.0 0.00 0.00 0.00 42 1007.7
20260510012551 61 6 3.0 5.0 0.00 0.00 0.00 41 1007.3
20260510012048 61 11 1.0 2.0 0.00 0.00 0.00 42 1007.5
20260510011547 61 24 1.0 3.0 0.00 0.00 0.00 41 1007.0
20260510011043 62 3 2.0 5.0 0.00 0.00 0.00 41 1007.1
20260510010540 62 1 2.0 3.0 0.00 0.00 0.00 41 1007.0
20260510010037 62 5 3.0 5.0 0.00 0.00 0.00 40 1006.8
20260510005533 63 36 7.0 11.0 0.00 0.00 0.00 39 1006.8
20260510005031 63 14 3.0 3.0 0.00 0.00 0.00 41 1006.8
20260510004528 63 327 1.0 5.0 0.00 0.00 0.00 39 1006.4
20260510004026 64 14 3.0 4.0 0.00 0.00 0.00 39 1006.5
20260510003523 64 38 2.0 4.0 0.00 0.00 0.00 39 1006.3
20260510003018 64 351 2.0 4.0 0.00 0.00 0.00 39 1006.3
20260510002513 65 342 0.0 5.0 0.00 0.00 0.00 40 1006.3
20260510002011 65 318 1.0 6.0 0.00 0.00 0.00 39 1006.0
20260510001508 66 14 2.0 10.0 0.00 0.00 0.00 39 1005.7
20260510001006 66 343 2.0 4.0 0.00 0.00 0.00 38 1005.6
20260510000501 66 8 2.0 8.0 0.00 0.00 0.00 37 1005.3
20260509235958 66 320 3.0 4.0 0.00 0.00 0.00 37 1005.4
20260509235455 66 9 2.0 4.0 0.00 0.00 0.00 37 1005.4
20260509234951 67 349 2.0 5.0 0.00 0.00 0.00 37 1005.2
20260509234448 68 320 3.0 7.0 0.00 0.00 0.00 35 1005.1
20260509233946 68 24 5.0 6.0 0.00 0.00 0.00 36 1005.0
20260509233443 68 352 2.0 4.0 0.00 0.00 0.00 34 1005.0
20260509232939 69 311 5.0 7.0 0.00 0.00 0.00 32 1004.9
20260509232437 69 292 3.0 5.0 0.00 0.00 0.00 30 1004.7
20260509231932 69 324 6.0 7.0 0.00 0.00 0.00 31 1004.7
20260509231430 69 336 5.0 7.0 0.00 0.00 0.00 31 1004.7
20260509230928 71 278 1.0 5.0 0.00 0.00 0.00 29 1004.6
20260509230424 70 198 1.0 4.0 0.00 0.00 0.00 31 1004.7
20260509225920 70 315 4.0 4.0 0.00 0.00 0.00 30 1004.7
20260509225417 70 196 4.0 4.0 0.00 0.00 0.00 29 1004.7
20260509224913 70 266 3.0 8.0 0.00 0.00 0.00 30 1004.6
20260509224413 71 276 4.0 6.0 0.00 0.00 0.00 29 1004.4
20260509223911 71 346 4.0 6.0 0.00 0.00 0.00 30 1004.2
20260509223408 71 322 4.0 6.0 0.00 0.00 0.00 29 1004.5
20260509222905 72 320 3.0 9.0 0.00 0.00 0.00 29 1004.2
20260509222400 72 322 2.0 6.0 0.00 0.00 0.00 29 1004.3
20260509221855 72 272 4.0 9.0 0.00 0.00 0.00 29 1004.2
20260509221353 72 313 8.0 9.0 0.00 0.00 0.00 29 1004.0
20260509220849 71 326 6.0 7.0 0.00 0.00 0.00 32 1003.9
20260509220345 72 313 5.0 10.0 0.00 0.00 0.00 31 1003.9
20260509215840 72 305 5.0 6.0 0.00 0.00 0.00 30 1004.0
20260509215337 71 259 4.0 8.0 0.00 0.00 0.00 30 1003.6
20260509214834 71 339 5.0 10.0 0.00 0.00 0.00 29 1003.6
20260509214332 71 296 5.0 10.0 0.00 0.00 0.00 30 1003.7
20260509213829 71 293 4.0 9.0 0.00 0.00 0.00 30 1003.6
20260509213324 71 210 1.0 6.0 0.00 0.00 0.00 30 1003.5
20260509212822 72 299 5.0 8.0 0.00 0.00 0.00 29 1003.6
20260509212320 71 38 2.0 9.0 0.00 0.00 0.00 30 1003.3
20260509211815 72 311 6.0 13.0 0.00 0.00 0.00 27 1003.3
20260509211311 71 318 4.0 9.0 0.00 0.00 0.00 29 1003.3
20260509210808 71 334 3.0 8.0 0.00 0.00 0.00 32 1003.2
20260509210306 71 240 2.0 5.0 0.00 0.00 0.00 31 1002.9
20260509205804 72 277 6.0 7.0 0.00 0.00 0.00 30 1003.1
20260509205300 72 305 5.0 8.0 0.00 0.00 0.00 30 1002.9
20260509204756 73 271 3.0 8.0 0.00 0.00 0.00 29 1002.9
20260509204252 72 233 2.0 8.0 0.00 0.00 0.00 30 1002.8
20260509203748 73 311 4.0 12.0 0.00 0.00 0.00 26 1002.8
20260509203246 73 218 5.0 7.0 0.00 0.00 0.00 33 1002.8
20260509202742 72 222 1.0 6.0 0.00 0.00 0.00 33 1002.8
20260509202238 71 302 5.0 7.0 0.00 0.00 0.00 32 1002.8
20260509201733 73 243 2.0 9.0 0.00 0.00 0.00 30 1002.6
20260509201230 73 293 1.0 7.0 0.00 0.00 0.00 33 1002.8
20260509200726 73 295 2.0 7.0 0.00 0.00 0.00 31 1002.9
20260509200221 73 305 1.0 6.0 0.00 0.00 0.00 31 1002.9
20260509195717 73 222 3.0 5.0 0.00 0.00 0.00 31 1002.8
20260509195213 73 234 4.0 8.0 0.00 0.00 0.00 31 1002.8
20260509194713 72 177 3.0 8.0 0.00 0.00 0.00 31 1002.9
20260509194210 71 191 1.0 4.0 0.00 0.00 0.00 32 1003.0
20260509193707 71 261 3.0 6.0 0.00 0.00 0.00 32 1003.0
20260509193206 71 264 2.0 8.0 0.00 0.00 0.00 33 1002.9
20260509192702 70 191 2.0 4.0 0.00 0.00 0.00 32 1002.8
20260509192158 70 237 2.0 6.0 0.00 0.00 0.00 33 1002.9
20260509191653 71 274 3.0 6.0 0.00 0.00 0.00 31 1003.1
20260509191150 70 251 4.0 7.0 0.00 0.00 0.00 31 1003.0
20260509190646 72 339 7.0 8.0 0.00 0.00 0.00 32 1003.0
20260509190143 71 210 2.0 10.0 0.00 0.00 0.00 31 1003.0
20260509185642 72 296 5.0 7.0 0.00 0.00 0.00 30 1002.7
20260509185137 71 267 4.0 8.0 0.00 0.00 0.00 30 1002.8
20260509184635 70 330 6.0 6.0 0.00 0.00 0.00 31 1002.6
20260509184131 70 299 4.0 6.0 0.00 0.00 0.00 34 1002.5
20260509183628 71 333 2.0 5.0 0.00 0.00 0.00 29 1002.6
20260509183123 72 271 12.0 12.0 0.00 0.00 0.00 29 1002.8
20260509182619 71 169 1.0 6.0 0.00 0.00 0.00 30 1002.4
20260509182117 70 273 2.0 4.0 0.00 0.00 0.00 35 1002.6
20260509181615 69 282 4.0 4.0 0.00 0.00 0.00 34 1002.9
20260509181112 68 242 2.0 3.0 0.00 0.00 0.00 38 1002.8
20260509180608 67 269 0.0 1.0 0.00 0.00 0.00 35 1002.9
20260509180105 67 339 0.0 3.0 0.00 0.00 0.00 34 1002.7
20260509175601 67 298 1.0 4.0 0.00 0.00 0.00 34 1003.1
20260509175058 67 210 0.0 7.0 0.00 0.00 0.00 34 1003.0
20260509174554 67 328 2.0 4.0 0.00 0.00 0.00 34 1002.9
20260509174049 68 289 1.0 6.0 0.00 0.00 0.00 34 1003.0
20260509173549 68 332 2.0 3.0 0.00 0.00 0.00 35 1003.0
20260509173046 68 296 4.0 6.0 0.00 0.00 0.00 34 1003.1
20260509172543 69 267 2.0 4.0 0.00 0.00 0.00 37 1003.1
20260509172039 68 259 1.0 5.0 0.00 0.00 0.00 33 1003.2
20260509171535 68 321 2.0 6.0 0.00 0.00 0.00 32 1003.2
20260509171032 68 285 4.0 6.0 0.00 0.00 0.00 31 1003.2
20260509170527 68 317 4.0 5.0 0.00 0.00 0.00 38 1003.2
20260509170023 68 302 4.0 8.0 0.00 0.00 0.00 32 1003.2
20260509165522 68 20 3.0 4.0 0.00 0.00 0.00 34 1003.1
20260509165018 68 319 4.0 7.0 0.00 0.00 0.00 33 1003.2
20260509164514 69 298 4.0 10.0 0.00 0.00 0.00 35 1002.9
20260509164009 69 264 5.0 5.0 0.00 0.00 0.00 35 1003.1
20260509163508 69 269 2.0 4.0 0.00 0.00 0.00 39 1003.1
20260509163008 68 214 0.0 6.0 0.00 0.00 0.00 40 1003.2
20260509162506 68 332 2.0 5.0 0.00 0.00 0.00 41 1003.1
20260509162001 68 257 1.0 3.0 0.00 0.00 0.00 41 1003.0
20260509161458 68 234 4.0 5.0 0.00 0.00 0.00 40 1003.0
20260509160952 67 284 4.0 4.0 0.00 0.00 0.00 45 1003.0
20260509160449 66 273 2.0 4.0 0.00 0.00 0.00 46 1003.2
20260509155944 66 289 1.0 4.0 0.00 0.00 0.00 45 1003.2
20260509155441 66 245 1.0 4.0 0.00 0.00 0.00 45 1003.0
20260509154938 66 197 0.0 2.0 0.00 0.00 0.00 49 1002.9
20260509154434 66 272 2.0 5.0 0.00 0.00 0.00 47 1003.2
20260509153931 66 345 0.0 3.0 0.00 0.00 0.00 48 1003.3
20260509153428 66 327 2.0 5.0 0.00 0.00 0.00 46 1003.1
20260509152925 67 277 6.0 6.0 0.00 0.00 0.00 48 1002.9
20260509152421 68 29 0.0 4.0 0.00 0.00 0.00 50 1002.9
20260509151918 67 271 0.0 5.0 0.00 0.00 0.00 45 1002.9
20260509151414 67 200 2.0 4.0 0.00 0.00 0.00 50 1002.8
20260509150912 67 298 4.0 7.0 0.00 0.00 0.00 47 1002.9
20260509150410 67 263 0.0 3.0 0.00 0.00 0.00 50 1002.7
20260509145908 67 212 1.0 4.0 0.00 0.00 0.00 52 1002.6
20260509145407 67 273 1.0 1.0 0.00 0.00 0.00 54 1002.8
20260509144903 66 263 0.0 2.0 0.00 0.00 0.00 54 1002.8
20260509144400 65 216 1.0 5.0 0.00 0.00 0.00 57 1002.8
20260509143857 66 240 0.0 3.0 0.00 0.00 0.00 54 1002.7
20260509143355 65 273 2.0 6.0 0.00 0.00 0.00 56 1003.0
20260509142851 65 307 0.0 3.0 0.00 0.00 0.00 57 1002.8
20260509142347 64 281 2.0 3.0 0.00 0.00 0.00 58 1002.9
20260509141843 64 307 0.0 5.0 0.00 0.00 0.00 59 1002.6
20260509141340 63 235 0.0 4.0 0.00 0.00 0.00 60 1002.6
20260509140836 63 264 2.0 4.0 0.00 0.00 0.00 60 1002.8
20260509140333 63 253 1.0 3.0 0.00 0.00 0.00 63 1002.7
20260509135832 63 276 0.0 1.0 0.00 0.00 0.00 65 1002.8
20260509135329 62 283 2.0 6.0 0.00 0.00 0.00 65 1002.7
20260509134826 61 121 1.0 4.0 0.00 0.00 0.00 66 1002.6
20260509134323 61 209 0.0 3.0 0.00 0.00 0.00 67 1002.6
20260509133820 60 269 0.0 2.0 0.00 0.00 0.00 70 1002.4
20260509133317 60 294 2.0 4.0 0.00 0.00 0.00 70 1002.4
20260509132815 60 184 0.0 2.0 0.00 0.00 0.00 70 1002.4
20260509132314 60 277 3.0 3.0 0.00 0.00 0.00 71 1002.4
20260509131810 59 321 2.0 2.0 0.00 0.00 0.00 73 1002.6
20260509131307 59 185 0.0 3.0 0.00 0.00 0.00 72 1002.4
20260509130803 59 175 1.0 3.0 0.00 0.00 0.00 74 1002.5
20260509130259 58 275 2.0 5.0 0.00 0.00 0.00 74 1002.5
20260509125756 58 259 3.0 4.0 0.00 0.00 0.00 74 1003.0
20260509125252 58 113 0.0 5.0 0.00 0.00 0.00 76 1002.9
20260509124749 58 57 0.0 2.0 0.00 0.00 0.00 76 1002.6
20260509124245 58 149 2.0 7.0 0.00 0.00 0.00 76 1002.8
20260509123744 58 269 0.0 4.0 0.00 0.00 0.00 76 1002.7
20260509123241 57 275 1.0 2.0 0.00 0.00 0.00 78 1002.8
20260509122736 57 169 0.0 3.0 0.00 0.00 0.00 78 1002.6
20260509122233 56 66 0.0 1.0 0.00 0.00 0.00 80 1002.7
20260509121730 55 114 0.0 2.0 0.00 0.00 0.00 81 1002.5
20260509121227 55 137 2.0 2.0 0.00 0.00 0.00 82 1002.6
20260509120726 54 79 0.0 2.0 0.00 0.00 0.00 84 1002.6